Regional Weather Roundup
Issued by NWS

Home | Current Version | Previous Version | Graphics & Text | Print | Product List | Glossary On
Versions: 1 2 3 4 5 6 7 8 9 10 11 12 13 14 15 16 17 18 19 20 21 22 23 24 25 26 27 28 29 30 31 32 33 34 35 36 37 38 39 40 41 42 43 44 45 46 47 48 49 50
000
ASUS43 KIND 020459
RWRIN

WEATHER ROUNDUP FOR INDIANA
NATIONAL WEATHER SERVICE INDIANAPOLIS IN
100 AM EDT TUE JUN 02 2015

NOTE: "FAIR" INDICATES FEW OR NO CLOUDS BELOW 12,000 FEET WITH NO
SIGNIFICANT WEATHER AND/OR OBSTRUCTIONS TO VISIBILITY.

* - STATION DOES NOT REPORT WEATHER SUCH AS PRECIPITATION OR FOG.

+ - STATION NOT QUALITY CONTROLLED BY THE NATIONAL WEATHER SERVICE.
    USE DATA WITH CAUTION...ESPECIALLY DEWPOINT AND RELATIVE
    HUMIDITY OBSERVATIONS.

INZ001>003-010>013-019-020-020600-
NORTHWEST INDIANA

CITY           SKY/WX    TMP DP  RH WIND       PRES   REMARKS
RENSSELAER +   CLEAR     46  45  93 NE5       30.19S

$$

LMZ046-743>745-020600-
SOUTHERN LAKE MICHIGAN

STATION/POSITION TIME  TEMP    WIND        PRES    WAVE
                       AIR SEA DIR/SP/G            HT
                 (UTC) (F)     (DEG/KT/KT) (MB)    (FT)
BURNS HARBOR     0400          330/  5/  6 1023.4S
MICHIGAN CITY    0400   50     360/  3/  4   N/A
5NW MICH CITY    0400   48 55  350/  4/  6   N/A     2

$$

INZ004-005-014>016-021>024-020600-
NORTH CENTRAL INDIANA

CITY           SKY/WX    TMP DP  RH WIND       PRES   REMARKS
GOSHEN         CLEAR     48  46  93 NE3       30.19S
PERU/GRISSOM   CLEAR     50  48  93 E3        30.17S
SOUTH BEND     CLEAR     50  44  80 CALM      30.20S

$$

INZ006>009-017-018-025>027-020600-
NORTHEAST INDIANA

CITY           SKY/WX    TMP DP  RH WIND       PRES   REMARKS
ANGOLA *+      CLEAR     50  37  62 CALM      30.21R
FORT WAYNE     MOCLDY    50  47  89 E5        30.20S

$$

INZ028-029-035-036-043>045-051>053-020600-
WEST CENTRAL INDIANA

CITY           SKY/WX    TMP DP  RH WIND       PRES   REMARKS
CRAWFORDSVL +  CLEAR     52  46  79 E9        30.17S
GREENCASTLE +  MOCLDY    54  45  71 NE6       30.16F
LAFAYETTE      CLEAR     52  50  93 N3        30.17S
TERRE HAUTE    CLEAR     56  51  84 E8        30.15S

$$

INZ030>032-037>040-046>048-054>057-064-065-020600-
CENTRAL INDIANA

CITY           SKY/WX    TMP DP  RH WIND       PRES   REMARKS
GREENWOOD *+   PTCLDY    54  46  76 NE6       30.17F
INDIANAPOLIS   MOCLDY    54  47  77 NE9       30.15F
-EAGLE CREEK   CLEAR     53  48  83 NE5       30.17S
KOKOMO *+      CLEAR     52  46  82 E3        30.19R
MT COMFORT *+  PTCLDY    50 N/A N/A NE6       30.18S
SHELBYVILLE    PTCLDY    55  49  80 NE8       30.16F

$$

INZ033-034-041-042-049-050-058-059-020600-
EAST CENTRAL INDIANA

CITY           SKY/WX    TMP DP  RH WIND       PRES   REMARKS
MUNCIE         PTCLDY    50  46  86 NE6       30.18S

$$

INZ060-061-067>069-081>083-085>088-020600-
SOUTHWEST INDIANA

CITY           SKY/WX    TMP DP  RH WIND       PRES   REMARKS
EVANSVILLE     CLOUDY    60  54  80 NE7       30.14R
HUNTINGBURG *+ CLOUDY    57  54  88 E5        30.13F

$$

INZ062-063-066-070>080-084-089>092-020600-
SOUTH CENTRAL AND SOUTHEAST INDIANA

CITY           SKY/WX    TMP DP  RH WIND       PRES   REMARKS
BLOOMINGTON    CLOUDY    56  50  80 E12       30.15S
MADISON *+     CLOUDY    55  50  82 NE6       30.16F
SEYMOUR +      CLOUDY    57  52  82 E7        30.15S

$$



USA.gov is the U.S. government's official web portal to all federal, state and local government web resources and services.